This is the latest recevied weather packets stored in our database for station/object SP7QPD-1. If no packets are shown the sender has not sent any weather packets the latest 10 day(s).
| Time | Temp. | Humidity | Pressure | Rain* | Wind** | Luminosity | Snow |
|---|---|---|---|---|---|---|---|
| 1777695755 | 3.33° C | 74% | 1024.2 hPa | 0 mm | - | - | - |
| 1777695155 | 3.33° C | 74% | 1024.2 hPa | 0 mm | - | - | - |
| 1777694554 | 3.33° C | 73% | 1024.1 hPa | 0 mm | - | - | - |
| 1777693954 | 3.33° C | 74% | 1024 hPa | 0 mm | - | - | - |
| 1777693354 | 3.33° C | 73% | 1024 hPa | 0 mm | - | - | - |
| 1777692754 | 3.33° C | 74% | 1024.1 hPa | 0 mm | - | - | - |
| 1777692154 | 3.33° C | 73% | 1024.2 hPa | 0 mm | - | - | - |
| 1777691554 | 3.89° C | 74% | 1024.2 hPa | 0 mm | - | - | - |
| 1777690954 | 3.89° C | 74% | 1024.2 hPa | 0 mm | - | - | - |
| 1777690354 | 3.89° C | 74% | 1024.2 hPa | 0 mm | - | - | - |
| 1777689754 | 3.89° C | 74% | 1024.1 hPa | 0 mm | - | - | - |
| 1777689154 | 3.89° C | 74% | 1024.1 hPa | 0 mm | - | - | - |
| 1777688554 | 3.89° C | 74% | 1024 hPa | 0 mm | - | - | - |
| 1777674152 | 7.22° C | 67% | 1023.9 hPa | 0 mm | - | - | - |
| 1777672351 | 7.78° C | 66% | 1023.9 hPa | 0 mm | - | - | - |
| 1777671151 | 8.33° C | 65% | 1023.9 hPa | 0.51 mm | - | - | - |
| 1777670551 | 8.89° C | 64% | 1023.9 hPa | 3.56 mm | - | - | - |
| 1777669951 | 8.89° C | 63% | 1023.8 hPa | 3.56 mm | - | - | - |
| 1777669351 | 8.89° C | 63% | 1023.8 hPa | 3.56 mm | - | - | - |
| 1777668151 | 10° C | 61% | 1023.9 hPa | 3.05 mm | - | - | - |
| 1777667551 | 10° C | 60% | 1023.8 hPa | 0.51 mm | - | - | - |
| 1777666950 | 10.56° C | 60% | 1023.8 hPa | 0.51 mm | - | - | - |
| 1777666350 | 10.56° C | 59% | 1023.7 hPa | 0.51 mm | - | - | - |
| 1777665750 | 11.11° C | 58% | 1023.7 hPa | 0.51 mm | - | - | - |
| 1777665150 | 11.11° C | 57% | 1023.7 hPa | 0.51 mm | - | - | - |
* Rain latest hour (hover to see other rain measurements)
** Current wind speed in m/s (hover to see current wind gust speed)